RH
86 89 89 90 88 91 90 92 93 89 89 90 87 86 88 90 91 92 92 92 96 91 94 92 93 92 96 98 99 98 97 90 96 100 99 99 99 99 99 98 96 96 96
81 83 87 86 90 92 92 92 88 85 88 84 80 83 82 90 91 92 92 91 88 92 90 91 90 94 96 99 99 98 98 98 92 98 99 99 98 98 98 98 98 96 96
80 80 74 79 92 92 91 91 81 78 77 71 75 82 86 89 91 90 94 96 90 91 92 92 92 96 99 99 98 98 98 96 93 96 99 99 98 98 99 98 98 98 98
75 71 84 90 93 92 90 89 81 78 71 68 74 80 88 90 91 93 92 98 94 94 95 95 94 98 98 98 98 96 96 97 96 98 98 99 98 97 95 97 99 98 99
65 73 81 89 93 88 86 83 74 76 72 72 82 91 90 89 90 98 98 98 96 98 98 99 98 96 95 96 98 98 96 96 97 97 98 99 99 98 97 98 98 98 99
66 73 77 80 86 81 86 79 81 72 70 75 91 90 91 85 100 100 99 97 97 97 98 98 98 98 99 100 98 96 93 94 97 96 95 98 98 98 97 97 97 98 99
67 72 74 80 81 80 75 80 78 78 77 90 93 92 93 96 100 100 100 98 98 99 98 98 97 97 96 96 99 99 96 93 88 80 91 94 96 94 93 97 96 94 92
64 69 76 73 77 74 69 76 87 90 92 96 94 94 95 98 100 100 100 97 99 97 94 95 96 97 94 90 92 92 92 92 94 89 87 92 90 89 85 82 87 96 92
62 72 72 69 75 75 74 90 91 92 93 96 95 94 94 98 100 100 99 98 99 98 96 94 94 90 99 100 89 95 98 99 99 98 98 96 97 94 84 78 92 92 95
55 63 64 68 75 78 77 89 91 91 92 98 96 94 97 99 100 100 99 99 97 98 98 99 98 95 100 100 88 90 98 97 93 93 92 94 88 87 86 84 80 88 96
50 54 63 71 74 81 91 92 94 95 97 98 97 97 96 97 99 100 100 98 98 97 98 97 96 100 100 100 97 88 96 92 97 88 89 93 90 87 95 97 93 92 89
48 55 68 81 71 82 90 95 96 97 98 98 99 99 99 99 100 100 100 100 100 92 96 93 98 100 100 100 100 100 100 96 90 92 91 96 95 97 96 96 95 94 95
57 69 77 80 81 86 95 97 98 98 98 99 99 99 100 99 99 100 100 100 100 99 99 99 100 100 100 100 100 100 100 95 95 92 93 95 90 92 93 94 95 94 93
64 74 77 79 88 90 93 94 98 98 99 99 99 100 99 99 99 98 99 99 98 99 100 98 99 100 100 99 98 100 92 93 90 93 95 97 97 97 96 97 97 97 95
65 72 73 76 80 90 94 97 92 94 90 96 98 98 98 99 98 99 99 97 95 94 99 99 99 98 98 98 98 98 98 98 96 97 98 98 98 98 98 98 97 96 95
65 73 74 74 86 86 82 85 94 89 87 99 98 94 93 97 100 100 100 99 98 96 96 98 99 99 97 95 92 99 98 98 97 97 97 98 97 98 97 98 97 96 95
61 68 77 73 76 82 80 76 71 80 92 92 100 97 95 97 100 100 100 99 96 98 96 97 96 98 98 97 97 96 96 96 95 94 92 95 95 96 99 96 96 96 96
62 79 73 73 72 75 73 73 68 67 77 82 99 100 98 99 100 100 100 98 96 96 95 95 94 95 96 93 94 92 90 93 94 88 89 87 88 85 90 87 91 92 91
63 64 62 69 68 72 72 72 67 70 68 79 96 97 100 100 100 100 100 84 85 90 95 94 93 85 85 84 84 82 81 83 82 82 82 81 80 82 85 83 85 98 96
59 68 67 65 72 73 73 75 71 70 76 76 88 84 99 97 98 98 98 95 87 82 82 83 84 87 82 73 73 74 74 82 80 77 74 82 79 78 77 80 83 89 91
50 61 62 57 64 64 65 70 71 70 68 67 66 86 98 81 87 87 89 91 87 83 82 82 83 87 86 83 76 69 67 68 69 70 71 72 80 80 76 74 76 79 79
48 51 54 52 53 55 62 62 71 67 68 66 62 73 99 78 77 80 80 81 80 79 77 77 75 74 72 72 73 75 73 69 66 68 66 64 70 76 77 72 72 75 83
56 54 52 49 51 62 62 56 57 66 66 66 64 63 89 82 77 76 77 76 77 79 79 77 74 70 66 65 63 60 64 65 65 67 68 68 68 68 72 74 74 86 91
72 66 57 58 56 53 56 60 53 61 57 63 66 65 73 74 70 72 72 72 74 75 74 74 69 65 62 59 57 56 51 51 60 59 60 62 67 75 66 69 69 81 81
59 75 81 69 58 60 56 54 54 54 48 51 59 63 67 65 64 63 63 64 67 70 71 69 65 63 64 62 58 58 60 78 61 66 58 56 56 59 63 65 72 90 91
74 71 76 82 80 75 62 58 57 54 49 43 46 55 62 65 62 59 58 59 59 59 60 60 60 59 56 53 54 62 79 82 77 82 60 61 62 63 61 63 69 79 82
Wind_Speed
8 7 8 7 8 6 6 5 5 4 4 5 4 4 4 3 3 3 3 3 4 2 2 4 5 3 3 3 3 3 4 5 8 3 2 4 6 9 10 13 14 14 15
7 7 7 7 7 7 6 6 5 5 4 5 4 4 4 3 3 3 4 3 5 4 4 3 3 2 4 5 4 6 7 5 10 10 4 4 9 12 12 14 12 12 13
7 8 8 8 7 7 6 6 5 4 5 2 3 5 3 2 2 2 3 2 6 4 3 4 5 5 5 6 7 8 8 8 8 9 7 7 8 11 12 13 13 12 9
7 9 8 7 7 6 6 5 5 4 4 3 4 5 4 4 4 3 0 3 5 4 2 3 5 6 9 10 8 9 10 10 11 10 9 10 9 9 13 15 10 9 10
7 8 8 6 6 6 5 5 3 4 3 3 6 6 5 4 4 5 3 5 5 5 4 3 6 9 12 10 9 10 13 11 10 11 10 10 11 11 13 10 11 9 7
7 8 8 8 6 6 5 5 3 3 4 5 6 5 5 3 6 5 3 5 4 5 6 7 9 11 11 11 12 11 11 15 14 9 11 12 12 10 11 11 11 9 5
9 9 9 7 6 6 6 5 4 4 4 5 7 5 5 4 6 6 6 4 4 5 7 6 7 6 9 10 13 13 13 12 9 15 16 12 14 14 12 12 11 6 7
10 10 8 8 6 5 6 6 4 3 5 5 5 5 4 3 7 3 8 6 5 6 6 8 8 9 10 12 12 13 12 10 8 8 12 11 11 11 10 12 9 8 8
10 8 8 8 7 6 6 6 3 4 4 4 4 6 5 3 6 3 7 5 6 7 7 8 7 11 11 12 14 14 12 11 14 16 13 16 13 14 11 9 8 11 6
11 10 9 7 7 7 6 6 3 2 4 5 5 4 5 4 5 2 7 5 8 6 7 7 9 10 12 11 13 13 12 9 11 12 10 11 10 7 9 6 9 10 5
12 12 9 8 8 7 7 3 4 3 5 6 5 3 4 3 3 5 9 5 7 6 5 6 5 11 13 13 10 11 11 10 11 10 9 7 5 5 4 4 4 8 7
12 12 9 7 6 6 7 4 4 5 6 5 5 4 3 4 4 4 10 9 8 8 6 6 6 11 12 13 8 13 15 12 8 7 8 5 5 3 3 4 4 3 3
11 9 8 7 7 7 7 6 5 5 4 4 4 4 3 2 2 4 9 11 10 6 5 8 12 12 11 9 15 15 12 7 8 8 7 5 4 4 4 2 3 2 1
13 10 9 9 7 6 4 4 5 5 4 4 4 4 3 3 3 3 5 6 10 8 10 7 7 8 8 7 6 6 6 6 7 7 6 4 4 3 3 3 3 3 3
13 11 10 7 7 6 4 2 4 5 7 7 5 5 6 4 3 5 7 5 6 8 8 5 5 5 5 6 6 3 4 4 5 4 3 4 4 4 4 3 3 3 4
11 10 9 8 5 5 5 3 6 2 5 9 10 8 3 6 12 12 11 12 15 14 4 6 4 4 7 7 8 5 3 4 4 4 4 5 5 5 4 3 3 4 4
12 11 8 9 7 6 4 5 4 4 6 4 8 12 11 8 13 11 13 12 14 8 3 4 6 6 6 6 6 6 6 6 5 5 6 6 5 4 4 6 6 4 4
11 14 10 9 8 7 6 5 5 5 4 3 6 1 8 13 12 12 14 11 3 0 3 5 5 5 5 7 7 7 7 5 6 7 6 7 8 8 6 7 7 9 8
11 9 10 8 8 9 7 6 5 4 5 5 3 5 6 7 7 6 15 6 8 6 4 5 5 7 7 8 8 8 8 7 7 7 7 7 8 8 8 9 8 10 8
11 15 11 9 7 7 7 8 7 6 5 5 5 8 5 5 4 5 5 4 7 7 7 7 6 6 7 8 8 8 7 6 6 7 9 8 9 9 11 10 9 9 10
8 9 14 9 8 8 8 8 9 8 8 7 7 7 12 12 11 11 10 8 8 8 8 7 6 6 5 6 7 8 9 9 9 9 9 9 8 9 10 10 11 10 9
7 10 10 11 9 8 8 8 7 9 9 10 8 6 10 9 10 11 12 11 10 10 8 8 8 8 7 8 8 8 9 10 10 9 9 8 8 8 8 9 9 9 7
4 5 8 9 8 8 7 8 8 8 9 10 10 9 9 12 10 11 12 12 11 11 9 9 10 10 9 8 8 10 10 10 11 9 9 9 8 8 8 10 10 6 7
7 2 5 5 4 6 7 7 8 10 10 11 11 10 11 13 13 14 13 12 11 11 11 11 11 14 12 11 9 9 10 10 8 10 14 11 11 10 11 10 10 10 10
8 7 6 3 5 6 6 7 8 8 10 10 10 11 11 12 13 13 12 11 11 11 13 13 12 16 17 17 16 14 12 12 13 11 9 12 13 14 13 11 9 5 5
8 7 5 5 6 3 3 4 6 7 9 10 10 11 12 13 14 14 13 13 12 13 14 12 15 21 21 18 21 19 14 14 13 13 11 9 10 10 9 11 12 8 9
Wind_Direction
122 123 125 135 127 131 131 142 161 156 177 190 188 216 212 199 184 174 213 225 190 179 151 147 156 157 173 158 142 137 120 110 129 88 78 104 104 107 132 119 129 125 114
141 137 138 128 125 132 146 158 160 165 185 200 208 212 210 169 189 202 228 156 131 122 145 158 157 159 135 123 105 101 110 110 138 124 116 108 98 104 110 116 118 111 111
151 134 143 136 137 147 156 161 160 159 221 226 243 158 158 190 251 290 285 190 147 141 144 186 173 138 117 116 117 113 115 115 122 120 121 114 109 111 98 99 104 107 112
146 145 133 145 150 158 152 171 165 200 250 269 158 124 108 67 40 5 270 119 135 134 130 153 157 129 123 123 122 123 121 119 122 123 121 124 115 115 111 113 113 112 117
157 142 143 144 146 152 152 168 184 222 238 162 113 101 92 65 22 358 67 111 117 116 93 83 125 123 125 132 132 132 130 126 125 127 125 123 124 127 124 122 116 113 104
152 135 142 142 147 164 162 165 170 228 225 129 120 120 102 73 346 31 91 116 120 114 96 91 110 112 106 103 112 127 141 140 134 131 134 132 127 125 127 125 125 132 123
139 142 143 150 156 169 164 155 167 176 119 122 119 125 116 92 355 32 120 109 116 106 119 108 102 105 111 113 100 104 104 94 109 141 139 138 130 142 133 131 135 131 130
147 153 156 147 152 164 144 150 141 133 122 130 132 125 114 71 354 43 111 95 94 101 111 113 117 118 121 123 113 115 116 113 106 125 127 124 130 137 130 131 126 104 100
156 151 159 144 160 162 148 151 159 141 133 150 144 137 130 103 19 73 105 95 95 106 102 113 116 121 116 115 114 105 96 81 64 71 79 101 105 115 130 128 130 134 135
157 155 159 156 161 153 150 155 159 163 144 135 134 143 139 122 27 98 114 111 113 108 101 99 102 124 117 104 117 115 111 111 108 104 100 99 118 120 130 138 147 144 137
158 154 153 159 158 158 136 136 145 128 116 118 118 126 116 120 66 137 121 111 126 116 117 118 123 118 115 105 115 125 126 117 105 116 120 129 128 118 103 93 116 151 161
162 154 154 144 153 142 138 126 118 118 110 118 121 115 92 89 88 134 123 117 130 132 128 122 131 129 122 116 105 117 122 121 125 130 137 140 142 128 147 151 157 189 249
147 149 146 140 140 143 135 141 124 124 128 140 137 143 138 111 110 102 127 126 116 109 119 122 131 126 117 99 131 136 131 126 135 137 149 163 182 163 132 154 170 149 48
151 147 147 147 140 133 136 138 136 152 150 153 153 154 151 145 151 115 122 104 96 86 101 111 126 109 86 111 119 141 139 144 155 152 160 150 130 139 187 178 162 165 151
153 151 153 150 153 136 98 150 166 193 177 169 179 162 161 165 193 147 141 132 131 136 117 120 131 134 128 144 157 145 141 145 149 146 136 144 162 171 188 175 176 161 182
155 155 159 157 155 147 142 125 65 36 274 211 162 165 177 142 145 147 140 133 133 150 120 147 147 148 156 162 171 162 154 165 165 153 150 175 188 184 190 181 171 183 191
160 159 159 159 162 153 150 160 166 62 81 93 189 171 166 167 158 147 146 144 150 136 127 157 163 163 159 169 174 183 188 192 177 181 188 198 193 200 179 203 204 198 220
164 160 164 169 169 166 164 169 156 161 156 178 61 247 179 162 168 153 140 122 150 240 151 172 172 170 168 176 182 193 200 186 195 205 202 201 201 205 197 210 204 213 221
163 174 168 171 172 171 168 161 174 164 173 150 121 67 67 71 96 132 166 168 182 195 188 191 186 184 187 184 192 198 200 203 206 209 213 212 206 198 214 217 214 215 204
171 174 172 172 163 168 171 169 175 182 176 178 176 182 130 103 156 188 214 201 195 205 205 206 202 194 193 193 196 203 205 205 204 212 219 205 205 200 213 212 207 204 213
180 175 179 173 176 182 179 184 185 181 186 192 202 176 177 175 189 196 200 210 206 210 209 210 210 199 195 194 202 209 208 211 215 211 206 206 198 200 210 213 215 214 216
192 182 185 185 185 189 188 187 183 192 191 191 198 187 177 197 192 197 204 209 211 212 210 211 217 218 214 206 202 209 219 226 222 219 224 218 200 207 207 215 218 214 205
181 188 199 197 190 187 189 191 186 192 199 197 193 183 179 204 200 204 207 211 211 212 208 208 214 222 223 218 215 211 211 215 214 211 217 216 213 213 206 215 218 200 189
17 3 188 195 194 187 186 198 201 192 196 202 196 193 188 200 210 211 212 211 210 214 215 215 218 223 227 226 219 218 224 223 208 208 208 213 216 212 217 217 216 208 206
9 8 7 288 203 204 204 207 206 210 201 198 204 199 197 201 209 215 214 214 214 213 217 218 221 224 221 223 226 224 221 205 211 209 210 215 214 210 213 216 212 183 150
6 359 3 3 23 344 247 229 225 220 217 213 203 201 199 201 207 210 210 210 213 214 214 216 221 222 224 225 225 226 217 214 212 215 214 216 213 215 215 215 211 196 177